Location: Central Falls
(41.8900°N, 71.3929°W)
Time: 03:13:34
(UTC+00:00)

Tiros 1 - Pass Details

Date: 13 December 2023
Orbit: 625 x 658 km, 48.4° (Epoch: 01 March)

Event Time Altitude Azimuth Distance (km) Brightness Sun altitude
Rises 05:52:57 0° 232° (SW) 2,946 - -65.8°
Reaches altitude 10° 05:55:16 10° 230° (SW) 2,044 - -65.5°
Maximum altitude 05:59:57 68° 148° (SSE) 702 - -64.8°
Drops below altitude 10° 06:04:42 10° 65° (ENE) 2,070 - -64.2°
Sets 06:07:04 0° 63° (ENE) 2,986 - -63.8°
